[[{"header":{"parameterUnit":"m.s-1","parameterCategory":1,"la1":30.2991,"la2":30.254,"lo1":-89.0895,"lo2":-89.0444,"dy":0.0017,"dx":0.0017,"nx":28,"ny":28,"refTime":"2024-04-11T21:00:00:Z","depth":0,"parameterNumber":2,"parameterNumberName":"U-component_of_WINDS"},"data":[0,0,0,0,0,0,0,0,0,0,0,0,0,0,0,0,0,0,0,0,0,0,0,0,0,0,0,0,0,0,0,0,0,0,0,0,0,0,0,0,0,0,0,0,0,0,0,0,0,0,0,0,0,0,0,0,0,0,8.5059,8.5062,0,8.531,8.5313,8.5316,8.5278,8.5273,8.5269,8.5265,8.5527,8.5537,8.5548,0,0,0,0,0,0,0,0,0,0,0,0,0,8.4552,8.4562,8.5059,8.5062,8.5065,8.531,8.5313,8.5316,8.5278,8.5273,8.5268,8.5263,8.5523,8.5536,8.5549,0,0,0,0,0,0,0,0,0,0,0,0,0,8.4785,8.4565,8.5058,8.5075,8.5079,8.5309,8.5313,8.5317,8.528,8.5273,8.5267,8.5261,8.5519,8.5535,8.5551,8.578,0,0,8.5601,8.5608,0,0,0,0,0,0,0,0,8.4772,8.4803,8.507,8.5075,8.5079,8.5256,8.523,8.5473,8.5281,8.5204,8.5265,8.5258,8.5442,8.5464,8.5526,8.5793,8.5804,8.5602,8.5612,8.5619,8.5624,0,0,0,0,0,0,0,8.4755,8.4792,8.5158,8.5074,8.508,8.5073,8.5099,8.5276,8.5356,8.521,8.5208,8.5238,8.5443,8.551,8.5531,8.5808,8.5602,8.5617,8.5627,8.5633,8.6281,8.6288,0,0,0,0,0,0,8.4734,8.4779,8.515,8.5166,8.4906,8.5087,8.5116,8.5206,8.5354,8.537,8.5243,8.5235,8.5485,8.5512,8.5541,8.5823,8.5619,8.5635,8.5644,8.6273,8.6282,8.629,0,0,0,0,0,0,8.4723,8.4767,8.514,8.4972,8.5019,8.5102,8.5204,8.5214,8.528,8.5379,8.5393,8.5296,8.5481,8.5517,8.5722,8.5831,8.5642,8.5657,8.6265,8.6276,8.6286,8.6386,0,0,0,0,0,0,8.4709,8.4764,8.485,8.4974,8.5028,8.5316,8.521,8.5224,8.5308,8.53,8.5432,8.5448,8.5479,8.5698,8.5738,8.585,8.567,8.6255,8.627,8.6283,8.6374,8.6399,8.6421,0,0,0,0,0,8.4691,8.4868,8.4855,8.49,8.5137,8.5322,8.5353,8.5384,8.5317,8.5406,8.547,8.5444,8.5812,8.5719,8.5764,8.5883,8.6249,8.6266,8.6282,8.6363,8.6394,8.6421,0,0,0,0,0,0,8.4755,8.4884,8.4871,8.5093,8.5197,8.5315,8.5428,8.5415,8.5541,8.5528,8.5562,8.5592,8.58,8.5862,8.5755,8.6115,8.6022,8.6048,8.6068,8.6098,8.6122,8.6104,8.5683,0,0,0,0,0,8.4795,8.4932,8.5038,8.5224,8.5277,8.5344,8.5425,8.544,8.5549,8.5593,8.5671,8.578,8.5921,8.6012,8.6147,8.6382,8.6412,8.6486,8.651,8.6529,8.6552,8.6686,8.6721,8.6345,8.6345,8.6344,0,0,8.4879,8.4967,8.5051,8.524,8.5321,8.5466,8.5381,8.5535,8.5644,8.5617,8.5816,8.5877,8.6001,8.6223,8.6324,8.628,8.6663,8.655,8.6564,8.6578,8.6706,8.6742,8.6773,8.6356,8.6354,8.6352,0,0,8.5106,8.5185,8.535,8.5435,8.556,8.5604,8.5644,8.5765,8.5805,8.6004,8.5989,8.6118,8.6358,8.6448,8.6525,8.6791,8.6773,8.6833,8.6959,8.7089,8.7118,8.7145,8.7243,8.7278,8.6856,8.6856,8.6856,0,8.5196,8.541,8.5437,8.5596,8.5681,8.5663,8.5833,8.5913,8.6077,8.6137,8.6085,8.6389,8.647,8.6715,8.678,8.6842,8.6891,8.6819,8.7111,8.7138,8.7164,8.7258,8.7294,8.6863,8.6862,8.6861,8.6861,0,8.5516,8.5665,8.5784,8.5942,8.604,8.6204,8.6258,8.6355,8.6362,8.6412,8.6618,8.6715,8.6871,8.693,8.6938,8.7178,8.7147,8.7103,8.701,8.7206,8.7295,8.7331,8.6873,8.687,8.6868,8.6866,0,0,8.5791,8.5963,8.6007,8.608,8.6218,8.6336,8.6499,8.6651,8.6735,8.6849,8.699,8.7195,8.7156,8.7244,8.7262,8.7375,8.7585,8.7318,8.7322,8.7367,8.7859,8.7894,8.7935,8.7572,8.7579,8.7585,8.785,0,8.6034,8.6322,8.6353,8.6612,8.6752,8.6739,8.6882,8.6984,8.7036,8.7164,8.7222,8.7368,8.7304,8.7357,8.7469,8.7535,8.7684,8.7516,8.7707,8.7714,8.768,8.7981,8.8017,8.8263,8.7885,8.7891,8.7895,0,8.6356,8.648,8.6752,8.6874,8.6935,8.7063,8.7206,8.7328,8.7445,8.7475,8.7575,8.7579,8.7752,8.765,8.7891,8.7776,8.7856,8.7901,8.7911,8.7933,8.7818,8.8014,8.8342,8.838,8.795,8.7945,8.7941,0,8.6534,8.6769,8.6963,8.7026,8.7172,8.7263,8.7328,8.7438,8.7529,8.7655,8.7715,8.7859,8.7939,8.8052,8.8097,8.8019,8.8337,8.8238,8.837,8.8369,8.844,8.8435,8.8788,8.8486,8.8485,8.8485,8.8484,0,8.6805,8.6973,8.7045,8.7165,8.7355,8.739,8.7577,8.7639,8.7737,8.7871,8.7867,8.7994,8.8043,8.8179,8.8215,8.8411,8.8446,8.8478,8.8486,8.848,8.8477,8.8535,8.8521,8.8495,8.8492,8.849,8.8489,0,8.7036,8.7091,8.7303,8.7424,8.7459,8.7594,8.7699,8.7816,8.7866,8.8037,8.8078,8.8159,8.8318,8.8373,8.8566,8.8591,8.882,8.8812,8.8781,8.8783,8.8913,8.8902,8.9319,8.9377,8.9033,8.9036,8.9039,0,8.7207,8.7336,8.7472,8.7561,8.763,8.7773,8.7865,8.7906,8.8003,8.8147,8.8249,8.8406,8.8535,8.8791,8.8868,8.9017,8.9015,8.9151,8.9037,8.9029,8.9022,8.9015,8.903,8.9173,8.9176,8.9179,8.9181,0,8.7505,8.7526,8.7659,8.7803,8.7914,8.8029,8.8141,8.8214,8.8272,8.8382,8.8544,8.8644,8.8842,8.9,8.9153,8.9223,8.9215,8.9216,8.9255,8.9252,8.923,8.9248,8.8842,8.9207,8.9205,8.9203,8.9201,8.92,8.7714,8.783,8.7944,8.8094,8.8182,8.8287,8.8405,8.847,8.8606,8.877,8.8786,8.8962,8.9079,8.9283,8.9361,8.9501,8.9464,8.9519,8.9534,8.9548,8.956,8.9205,8.9529,8.9528,8.9527,8.9527,8.9526,0,8.8016,8.8089,8.8225,8.8382,8.8501,8.848,8.8603,8.8705,8.8859,8.8968,8.9095,8.9285,8.9439,8.9529,8.9684,8.978,8.978,8.982,8.9815,8.9832,8.9582,8.9535,8.9817,8.9817,8.9817,8.9817,8.9817,8.9817,8.8186,8.8383,8.8418,8.8659,8.8732,8.8904,8.8977,8.9075,8.9163,8.9374,8.9502,8.9559,8.9662,8.9825,8.9967,8.999,9.0049,9.0093,9.0113,8.9879,8.9849,8.982,8.9776,9.0105,9.0105,9.0351,9.0353,9.0355]},{"header":{"parameterUnit":"m.s-1","parameterCategory":1,"la1":30.2991,"la2":30.254,"lo1":-89.0895,"lo2":-89.0444,"dy":0.0017,"dx":0.0017,"nx":28,"ny":28,"refTime":"2024-04-11T21:00:00:Z","depth":0,"parameterNumber":3,"parameterNumberName":"V-component_of_WINDS"},"data":[0,0,0,0,0,0,0,0,0,0,0,0,0,0,0,0,0,0,0,0,0,0,0,0,0,0,0,0,0,0,0,0,0,0,0,0,0,0,0,0,0,0,0,0,0,0,0,0,0,0,0,0,0,0,0,0,0,0,-5.8122,-5.8122,0,-5.8163,-5.8163,-5.8164,-5.8102,-5.81,-5.8097,-5.8095,-5.8136,-5.8139,-5.8142,0,0,0,0,0,0,0,0,0,0,0,0,0,-5.7989,-5.7991,-5.8122,-5.8122,-5.8123,-5.8163,-5.8163,-5.8164,-5.8102,-5.81,-5.8097,-5.8094,-5.8135,-5.8138,-5.8142,0,0,0,0,0,0,0,0,0,0,0,0,0,-5.804,-5.7992,-5.8122,-5.8097,-5.8095,-5.8163,-5.8163,-5.8164,-5.8103,-5.8099,-5.8096,-5.8093,-5.8134,-5.8138,-5.8143,-5.8236,0,0,-5.8157,-5.8159,0,0,0,0,0,0,0,0,-5.8037,-5.8045,-5.81,-5.8099,-5.8097,-5.8124,-5.8131,-5.8188,-5.8104,-5.81,-5.8095,-5.8092,-5.8134,-5.8139,-5.8153,-5.8238,-5.824,-5.8157,-5.816,-5.8162,-5.8163,0,0,0,0,0,0,0,-5.8034,-5.8043,-5.8138,-5.8101,-5.8099,-5.8083,-5.8087,-5.8142,-5.8135,-5.81,-5.8095,-5.8101,-5.8133,-5.8149,-5.8154,-5.824,-5.8157,-5.8161,-5.8164,-5.8166,-5.8404,-5.8408,0,0,0,0,0,0,-5.8033,-5.804,-5.8137,-5.8139,-5.8058,-5.8088,-5.8092,-5.8118,-5.8134,-5.8133,-5.8104,-5.8098,-5.8143,-5.8149,-5.8155,-5.8266,-5.8162,-5.8166,-5.8169,-5.8401,-5.8405,-5.8409,0,0,0,0,0,0,-5.8031,-5.8042,-5.8135,-5.8088,-5.8099,-5.8094,-5.8124,-5.8121,-5.8137,-5.8137,-5.8135,-5.8122,-5.814,-5.8149,-5.8217,-5.8267,-5.8168,-5.8173,-5.8397,-5.8402,-5.8407,-5.8489,0,0,0,0,0,0,-5.8027,-5.8042,-5.8077,-5.809,-5.8102,-5.8196,-5.8127,-5.8124,-5.8146,-5.8138,-5.8154,-5.8153,-5.8139,-5.821,-5.8221,-5.8271,-5.8176,-5.8392,-5.8399,-5.8405,-5.8482,-5.8497,-5.8509,0,0,0,0,0,-5.8022,-5.8098,-5.808,-5.8092,-5.8146,-5.8199,-5.8206,-5.8189,-5.815,-5.8186,-5.8186,-5.8152,-5.8259,-5.8218,-5.823,-5.8282,-5.8389,-5.8397,-5.8405,-5.8476,-5.8494,-5.8509,0,0,0,0,0,0,-5.8091,-5.8099,-5.8079,-5.8161,-5.818,-5.8189,-5.8233,-5.8208,-5.8238,-5.823,-5.8207,-5.8211,-5.8284,-5.8289,-5.8243,-5.8374,-5.8318,-5.8328,-5.8367,-5.8384,-5.8398,-5.8395,-5.818,0,0,0,0,0,-5.8116,-5.8159,-5.8163,-5.8236,-5.8246,-5.8239,-5.8261,-5.8246,-5.8264,-5.8272,-5.8277,-5.8296,-5.8334,-5.8359,-5.8394,-5.8482,-5.8485,-5.8524,-5.8538,-5.8549,-5.8559,-5.8607,-5.8625,-5.8435,-5.8435,-5.8435,0,0,-5.8168,-5.8177,-5.8206,-5.825,-5.8263,-5.8308,-5.8246,-5.8295,-5.8328,-5.8279,-5.8345,-5.8349,-5.8368,-5.8447,-5.8482,-5.8454,-5.8612,-5.8559,-5.8568,-5.8572,-5.8617,-5.8635,-5.8651,-5.8441,-5.844,-5.8439,0,0,-5.8285,-5.8296,-5.8358,-5.8373,-5.8394,-5.8388,-5.8403,-5.8416,-5.8417,-5.8482,-5.8447,-5.8485,-5.8551,-5.8567,-5.8584,-5.8708,-5.8679,-5.872,-5.8791,-5.8838,-5.8853,-5.8866,-5.8912,-5.8928,-5.8729,-5.8729,-5.873,0,-5.8346,-5.8413,-5.8393,-5.8446,-5.8467,-5.8425,-5.8488,-5.8502,-5.8533,-5.8549,-5.8517,-5.8599,-5.8609,-5.8692,-5.8722,-5.8737,-5.8753,-5.8718,-5.8853,-5.8866,-5.8878,-5.8921,-5.8938,-5.8734,-5.8734,-5.8733,-5.8733,0,-5.8488,-5.8534,-5.8582,-5.8614,-5.864,-5.8697,-5.8686,-5.8715,-5.8697,-5.8695,-5.8762,-5.8773,-5.881,-5.8828,-5.8811,-5.8909,-5.8891,-5.8857,-5.88,-5.8901,-5.8941,-5.8957,-5.8741,-5.874,-5.8738,-5.8737,0,0,-5.8649,-5.8671,-5.8688,-5.8703,-5.8723,-5.8759,-5.8815,-5.8851,-5.8877,-5.8899,-5.8946,-5.9003,-5.8971,-5.899,-5.8975,-5.9016,-5.9115,-5.8976,-5.8976,-5.9003,-5.9224,-5.9251,-5.9271,-5.9096,-5.9099,-5.9101,-5.9223,0,-5.8767,-5.8864,-5.8848,-5.8942,-5.8986,-5.8947,-5.8995,-5.9013,-5.9013,-5.9049,-5.9048,-5.9089,-5.9044,-5.9055,-5.9094,-5.9095,-5.916,-5.9086,-5.9139,-5.9141,-5.9137,-5.9291,-5.932,-5.9434,-5.9238,-5.9241,-5.9243,0,-5.8918,-5.8947,-5.9046,-5.906,-5.9078,-5.9122,-5.9155,-5.919,-5.9209,-5.9206,-5.9228,-5.9205,-5.9261,-5.9203,-5.9279,-5.923,-5.925,-5.9254,-5.9258,-5.9263,-5.9199,-5.9301,-5.947,-5.9488,-5.9267,-5.9265,-5.9263,0,-5.9028,-5.9092,-5.9159,-5.9173,-5.9191,-5.9223,-5.9232,-5.9248,-5.9272,-5.93,-5.9315,-5.9349,-5.9369,-5.9396,-5.9383,-5.9342,-5.9462,-5.9403,-5.9461,-5.9462,-5.9489,-5.9488,-5.9664,-5.9501,-5.9501,-5.95,-5.95,0,-5.9161,-5.9224,-5.9209,-5.9251,-5.9319,-5.93,-5.9368,-5.9373,-5.9387,-5.9429,-5.9397,-5.9437,-5.9417,-5.9456,-5.9446,-5.9511,-5.9519,-5.9519,-5.9516,-5.9522,-5.9523,-5.9536,-5.9528,-5.9505,-5.9504,-5.9503,-5.9502,0,-5.9296,-5.9289,-5.936,-5.9372,-5.9376,-5.9426,-5.9436,-5.9475,-5.9472,-5.9526,-5.9537,-5.9532,-5.9576,-5.9566,-5.9613,-5.9606,-5.9689,-5.9675,-5.9683,-5.968,-5.974,-5.9735,-5.9932,-5.9958,-5.9777,-5.9778,-5.978,0,-5.9383,-5.943,-5.9447,-5.9473,-5.9485,-5.9527,-5.9551,-5.9534,-5.956,-5.9586,-5.9622,-5.9663,-5.9695,-5.9766,-5.9767,-5.9803,-5.9791,-5.9858,-5.9796,-5.9802,-5.9793,-5.9791,-5.9796,-5.987,-5.9872,-5.9874,-5.9875,0,-5.9538,-5.9532,-5.9568,-5.9604,-5.9634,-5.9661,-5.9684,-5.9707,-5.9692,-5.9723,-5.9768,-5.9793,-5.9841,-5.9883,-5.9916,-5.9925,-5.9898,-5.9894,-5.991,-5.9918,-5.9921,-5.9922,-5.9718,-5.989,-5.9889,-5.9888,-5.9887,-5.9886,-5.9652,-5.9693,-5.9711,-5.9753,-5.9769,-5.9792,-5.983,-5.9832,-5.9869,-5.9908,-5.9895,-5.9947,-5.9965,-6.0007,-6.002,-6.006,-6.0035,-6.0057,-6.0063,-6.0069,-6.0077,-5.9914,-6.0066,-6.0065,-6.0065,-6.0064,-6.0064,0,-5.9807,-5.9817,-5.9855,-5.989,-5.9923,-5.9895,-5.992,-5.9949,-5.9995,-6.0015,-6.0047,-6.0099,-6.0139,-6.0143,-6.018,-6.0211,-6.02,-6.0222,-6.022,-6.0223,-6.0097,-6.008,-6.0231,-6.0231,-6.023,-6.023,-6.023,-6.023,-5.9891,-5.9959,-5.9955,-6.003,-6.004,-6.009,-6.0107,-6.0128,-6.0144,-6.0204,-6.0237,-6.0239,-6.0253,-6.0291,-6.0327,-6.0327,-6.0343,-6.037,-6.0366,-6.0248,-6.0231,-6.0216,-6.02,-6.0373,-6.0373,-6.0488,-6.0489,-6.049]}]]